Weather History for Clermont County, Batavia, OH

Change the Weather History Date:

Tuesday, January 7, 2014

  Actual Average (KLUK) Record (KLUK)
Temperature  
Mean Temperature 5 °F -  
Max Temperature 14 °F 37 °F 69 °F (2008)
Min Temperature -4 °F 21 °F -5 °F (2014)
Degree Days  
Heating Degree Days 60    
Moisture  
Dew Point -4 °F    
Average Humidity 65    
Maximum Humidity 72    
Minimum Humidity 53    
Precipitation  
Precipitation 0.00 in - - ()
Sea Level Pressure  
Sea Level Pressure 30.40 in    
Wind  
Wind Speed 11 mph (SW)    
Max Wind Speed 16 mph    
Max Gust Speed 23 mph    
Visibility 10 miles    
Events      
Averages and records for this station are not official NWS values.
T = Trace of Precipitation, MM = Missing Value Source: NWS Daily Summary

Daily Weather History Graph

Daily Weather History Graph

Search for Another Location

Airport:

Trip Planner

Search our weather history database for the weather conditions in past years. The results will help you decide how hot, cold, wet, or windy it might be!

Date:

Astronomy

Jan. 07, 2014 Rise Set
Actual Time 7:56 AM EST 5:30 PM EST
Civil Twilight 7:26 AM EST 6:00 PM EST
Nautical Twilight 6:53 AM EST 6:33 PM EST
Astronomical Twilight 6:20 AM EST 7:05 PM EST
Moon 11:47 AM EST (1/7) No Moon Set
Length of Visible Light 10h 33m
Length of Day
9h 34m
Waxing Crescent, 45% of the Moon is Illuminated
Jan 7
Waxing Crescent
Jan 7
First Quarter
Jan 15
Full
Jan 24
Last Quarter
Jan 30
New

Hourly Weather History & Observations

Time (EST) Temp. Windchill Dew Point Humidity Pressure Visibility Wind Dir Wind Speed Gust Speed Precip Events Conditions
12:16 AM -4.0 °F -25.2 °F -13.0 °F 65% 30.38 in 10.0 mi West 16.1 mph 20.7 mph N/A   Overcast
12:36 AM -4.0 °F -23.0 °F -13.0 °F 65% 30.38 in 7.0 mi West 12.7 mph 20.7 mph N/A   Overcast
12:57 AM -4.0 °F -25.2 °F -13.0 °F 65% 30.38 in 7.0 mi West 16.1 mph 19.6 mph N/A   Overcast
1:16 AM -4.0 °F -23.7 °F -11.2 °F 71% 30.38 in 7.0 mi West 13.8 mph 19.6 mph N/A   Overcast
1:36 AM -4.0 °F -22.1 °F -11.2 °F 71% 30.39 in 10.0 mi West 11.5 mph 20.7 mph N/A   Overcast
1:57 AM -4.0 °F -22.1 °F -11.2 °F 71% 30.39 in 7.0 mi West 11.5 mph 20.7 mph N/A   Overcast
2:16 AM -2.2 °F -19.9 °F -9.4 °F 71% 30.39 in 5.0 mi West 11.5 mph 19.6 mph N/A   Haze
2:37 AM -2.2 °F -18.9 °F -9.4 °F 71% 30.40 in 7.0 mi West 10.4 mph 20.7 mph N/A   Overcast
2:57 AM -2.2 °F -21.5 °F -9.4 °F 71% 30.41 in 10.0 mi West 13.8 mph 19.6 mph N/A   Overcast
3:16 AM -2.2 °F -20.7 °F -9.4 °F 71% 30.41 in 10.0 mi WSW 12.7 mph 20.7 mph N/A   Overcast
3:36 AM -2.2 °F -19.9 °F -9.4 °F 71% 30.40 in 10.0 mi WSW 11.5 mph - N/A   Mostly Cloudy
3:57 AM -2.2 °F -19.9 °F -9.4 °F 71% 30.39 in 10.0 mi WSW 11.5 mph 16.1 mph N/A   Scattered Clouds
4:16 AM -2.2 °F -18.9 °F -9.4 °F 71% 30.39 in 10.0 mi WSW 10.4 mph - N/A   Mostly Cloudy
4:37 AM -2.2 °F -18.9 °F -9.4 °F 71% 30.38 in 10.0 mi WSW 10.4 mph - N/A   Mostly Cloudy
4:56 AM -2.2 °F -19.9 °F -9.4 °F 71% 30.39 in 10.0 mi WSW 11.5 mph - N/A   Scattered Clouds
5:16 AM -2.2 °F -18.9 °F -9.4 °F 71% 30.39 in 10.0 mi WSW 10.4 mph - N/A   Scattered Clouds
5:37 AM -2.2 °F -18.9 °F -9.4 °F 71% 30.39 in 10.0 mi WSW 10.4 mph 18.4 mph N/A   Scattered Clouds
5:56 AM -2.2 °F -19.9 °F -9.4 °F 71% 30.39 in 10.0 mi WSW 11.5 mph - N/A   Clear
6:16 AM -2.2 °F -18.0 °F -9.4 °F 71% 30.39 in 10.0 mi WSW 9.2 mph - N/A   Clear
6:37 AM -2.2 °F -18.0 °F -9.4 °F 71% 30.39 in 10.0 mi WSW 9.2 mph - N/A   Clear
6:56 AM -2.2 °F -15.6 °F -9.4 °F 71% 30.40 in 10.0 mi WSW 6.9 mph - N/A   Scattered Clouds
7:16 AM -2.2 °F -16.8 °F -9.4 °F 71% 30.41 in 10.0 mi WSW 8.1 mph - N/A   Scattered Clouds
7:37 AM -2.2 °F -18.0 °F -9.4 °F 71% 30.42 in 10.0 mi WSW 9.2 mph - N/A   Scattered Clouds
7:56 AM -0.4 °F -17.6 °F -7.6 °F 72% 30.42 in 10.0 mi WSW 11.5 mph - N/A   Scattered Clouds
8:16 AM -0.4 °F -15.7 °F -7.6 °F 72% 30.43 in 10.0 mi WSW 9.2 mph - N/A   Clear
8:37 AM -0.4 °F -16.7 °F -7.6 °F 72% 30.44 in 10.0 mi WSW 10.4 mph - N/A   Clear
8:56 AM -0.4 °F -16.7 °F -7.6 °F 72% 30.45 in 10.0 mi WSW 10.4 mph - N/A   Clear
9:16 AM 1.4 °F -12.5 °F -5.8 °F 72% 30.46 in 10.0 mi SW 8.1 mph - N/A   Scattered Clouds
9:37 AM 1.4 °F -15.3 °F -5.8 °F 72% 30.46 in 10.0 mi WSW 11.5 mph 17.3 mph N/A   Mostly Cloudy
9:56 AM 1.4 °F -15.3 °F -5.8 °F 72% 30.47 in 10.0 mi WSW 11.5 mph - N/A   Overcast
10:16 AM 3.2 °F -13.9 °F -5.8 °F 66% 30.48 in 10.0 mi SW 12.7 mph - N/A   Mostly Cloudy
10:36 AM 3.2 °F -14.6 °F -5.8 °F 66% 30.47 in 10.0 mi WSW 13.8 mph 19.6 mph N/A   Mostly Cloudy
10:56 AM 5.0 °F -11.6 °F -5.8 °F 61% 30.46 in 10.0 mi SW 12.7 mph - N/A   Scattered Clouds
11:17 AM 5.0 °F -9.1 °F -4.0 °F 66% 30.44 in 10.0 mi SW 9.2 mph - N/A   Clear
11:36 AM 5.0 °F -10.8 °F -5.8 °F 61% 30.43 in 10.0 mi WSW 11.5 mph 18.4 mph N/A   Clear
11:56 AM 6.8 °F -6.9 °F -4.0 °F 61% 30.44 in 10.0 mi SW 9.2 mph - N/A   Scattered Clouds
12:17 PM 8.6 °F -6.3 °F -4.0 °F 57% 30.43 in 10.0 mi WSW 11.5 mph 17.3 mph N/A   Scattered Clouds
12:36 PM 8.6 °F -8.3 °F -4.0 °F 57% 30.42 in 10.0 mi WSW 15.0 mph 23.0 mph N/A   Scattered Clouds
12:56 PM 8.6 °F -6.3 °F -2.2 °F 62% 30.41 in 10.0 mi WSW 11.5 mph 17.3 mph N/A   Scattered Clouds
1:17 PM 10.4 °F 0.8 °F -2.2 °F 57% 30.40 in 10.0 mi SW 5.8 mph - N/A   Scattered Clouds
1:36 PM 10.4 °F -0.4 °F -0.4 °F 62% 30.40 in 10.0 mi WSW 6.9 mph - N/A   Clear
1:56 PM 10.4 °F -4.1 °F -2.2 °F 57% 30.40 in 10.0 mi SSW 11.5 mph 18.4 mph N/A   Scattered Clouds
2:17 PM 12.2 °F -2.5 °F -2.2 °F 53% 30.40 in 10.0 mi SW 12.7 mph 17.3 mph N/A   Scattered Clouds
2:36 PM 12.2 °F -0.2 °F -2.2 °F 53% 30.39 in 10.0 mi WSW 9.2 mph 16.1 mph N/A   Clear
2:56 PM 12.2 °F -1.8 °F -0.4 °F 57% 30.39 in 10.0 mi WSW 11.5 mph - N/A   Clear
3:17 PM 12.2 °F 1.7 °F -2.2 °F 53% 30.38 in 10.0 mi SW 6.9 mph - N/A   Scattered Clouds
3:36 PM 12.2 °F -0.2 °F -0.4 °F 57% 30.38 in 10.0 mi WSW 9.2 mph - N/A   Overcast
3:56 PM 12.2 °F -0.2 °F -0.4 °F 57% 30.39 in 10.0 mi SW 9.2 mph 17.3 mph N/A   Overcast
4:17 PM 14.0 °F 2.0 °F -0.4 °F 53% 30.39 in 10.0 mi SW 9.2 mph - N/A   Overcast
4:36 PM 12.2 °F -0.2 °F -0.4 °F 57% 30.39 in 10.0 mi WSW 9.2 mph 17.3 mph N/A   Overcast
4:56 PM 12.2 °F 0.7 °F -0.4 °F 57% 30.38 in 10.0 mi SW 8.1 mph - N/A   Overcast
5:17 PM 12.2 °F 2.9 °F -0.4 °F 57% 30.38 in 10.0 mi SSW 5.8 mph - N/A   Overcast
5:36 PM 12.2 °F 2.9 °F -0.4 °F 57% 30.37 in 10.0 mi SW 5.8 mph - N/A   Overcast
5:57 PM 12.2 °F 2.9 °F -0.4 °F 57% 30.37 in 10.0 mi SW 5.8 mph - N/A   Overcast
6:17 PM 12.2 °F 4.3 °F 1.4 °F 62% 30.37 in 10.0 mi SSW 4.6 mph - N/A   Overcast
6:36 PM 12.2 °F 6.1 °F 1.4 °F 62% 30.37 in 10.0 mi SW 3.5 mph - N/A   Overcast
6:57 PM 12.2 °F 4.3 °F 1.4 °F 62% 30.37 in 10.0 mi SW 4.6 mph - N/A   Overcast
7:17 PM 12.2 °F 6.1 °F 1.4 °F 62% 30.37 in 10.0 mi SSW 3.5 mph - N/A   Overcast
7:36 PM 12.2 °F 4.3 °F 1.4 °F 62% 30.38 in 10.0 mi South 4.6 mph - N/A   Overcast
7:57 PM 12.2 °F 2.9 °F 3.2 °F 67% 30.39 in 10.0 mi South 5.8 mph - N/A   Overcast
8:17 PM 12.2 °F 0.7 °F 3.2 °F 67% 30.39 in 10.0 mi South 8.1 mph - N/A   Overcast
8:36 PM 12.2 °F 2.9 °F 3.2 °F 67% 30.39 in 10.0 mi SW 5.8 mph - N/A   Overcast
8:57 PM 12.2 °F 4.3 °F 3.2 °F 67% 30.40 in 10.0 mi SSW 4.6 mph - N/A   Overcast
9:17 PM 14.0 °F 6.5 °F 3.2 °F 62% 30.40 in 10.0 mi SSW 4.6 mph - N/A   Overcast
9:36 PM 14.0 °F 6.5 °F 3.2 °F 62% 30.40 in 10.0 mi SW 4.6 mph - N/A   Overcast
9:57 PM 14.0 °F 5.1 °F 3.2 °F 62% 30.40 in 10.0 mi SSW 5.8 mph - N/A   Overcast
10:17 PM 14.0 °F 5.1 °F 3.2 °F 62% 30.41 in 10.0 mi SSW 5.8 mph - N/A   Overcast
10:36 PM 14.0 °F 3.9 °F 3.2 °F 62% 30.40 in 10.0 mi SSW 6.9 mph - N/A   Overcast
10:57 PM 14.0 °F 8.2 °F 3.2 °F 62% 30.40 in 10.0 mi SSW 3.5 mph - N/A   Mostly Cloudy
11:17 PM 14.0 °F 8.2 °F 3.2 °F 62% 30.40 in 10.0 mi SSW 3.5 mph - N/A   Scattered Clouds
11:36 PM 12.2 °F 6.1 °F 3.2 °F 67% 30.40 in 10.0 mi South 3.5 mph - N/A   Clear
11:57 PM 12.2 °F - 3.2 °F 67% 30.39 in 10.0 mi Calm Calm - N/A   Mostly Cloudy